Year,Month,Day,Hour,Minute,Value (Times are PST for temperature in C)
2016,02,24,00,00,4.80
2016,02,24,00,01,4.80
2016,02,24,00,02,4.80
2016,02,24,00,03,4.80
2016,02,24,00,04,4.80
2016,02,24,00,05,4.80
2016,02,24,00,06,4.80
2016,02,24,00,07,4.80
2016,02,24,00,08,4.80
2016,02,24,00,09,4.80
2016,02,24,00,10,4.80
2016,02,24,00,11,4.80
2016,02,24,00,12,4.80
2016,02,24,00,13,4.80
2016,02,24,00,14,4.80
2016,02,24,00,15,4.80
2016,02,24,00,16,4.80
2016,02,24,00,17,4.70
2016,02,24,00,18,4.70
2016,02,24,00,19,4.70
2016,02,24,00,20,4.70
2016,02,24,00,21,4.70
2016,02,24,00,22,4.70
2016,02,24,00,23,4.70
2016,02,24,00,24,4.60
2016,02,24,00,25,4.60
2016,02,24,00,26,4.60
2016,02,24,00,27,4.60
2016,02,24,00,28,4.60
2016,02,24,00,29,4.60
2016,02,24,00,30,4.60
2016,02,24,00,31,4.60
2016,02,24,00,32,4.60
2016,02,24,00,33,4.60
2016,02,24,00,34,4.60
2016,02,24,00,35,4.60
2016,02,24,00,36,4.40
2016,02,24,00,37,4.40
2016,02,24,00,38,4.40
2016,02,24,00,39,4.40
2016,02,24,00,40,4.40
2016,02,24,00,41,4.40
2016,02,24,00,42,4.40
2016,02,24,00,43,4.40
2016,02,24,00,44,4.30
2016,02,24,00,45,4.30
2016,02,24,00,46,4.30
2016,02,24,00,47,4.30
2016,02,24,00,48,4.30
2016,02,24,00,50,4.30
2016,02,24,00,51,4.30
2016,02,24,00,52,4.30
2016,02,24,00,54,4.20
2016,02,24,00,55,4.20
2016,02,24,00,56,4.20
2016,02,24,00,57,4.10
2016,02,24,00,59,4.10
2016,02,24,01,00,4.10
2016,02,24,01,01,4.10
2016,02,24,01,02,4.10
2016,02,24,01,03,4.10
2016,02,24,01,04,4.10
2016,02,24,01,06,4.10
2016,02,24,01,07,4.10
2016,02,24,01,08,4.00
2016,02,24,01,09,4.00
2016,02,24,01,11,4.00
2016,02,24,01,12,4.00
2016,02,24,01,13,4.00
2016,02,24,01,14,4.00
2016,02,24,01,16,4.00
2016,02,24,01,17,4.00
2016,02,24,01,18,4.10
2016,02,24,01,19,4.10
2016,02,24,01,21,4.10
2016,02,24,01,23,4.10
2016,02,24,01,24,4.10
2016,02,24,01,25,4.10
2016,02,24,01,26,4.10
2016,02,24,01,28,4.10
2016,02,24,01,29,4.10
2016,02,24,01,30,4.10
2016,02,24,01,31,4.10
2016,02,24,01,33,4.10
2016,02,24,01,35,4.10
2016,02,24,01,36,4.10
2016,02,24,01,37,4.10
2016,02,24,01,38,4.10
2016,02,24,01,40,4.20
2016,02,24,01,41,4.20
2016,02,24,01,42,4.20
2016,02,24,01,43,4.20
2016,02,24,01,45,4.20
2016,02,24,01,46,4.20
2016,02,24,01,47,4.20
2016,02,24,01,48,4.20
2016,02,24,01,50,4.20
2016,02,24,01,51,4.20
2016,02,24,01,52,4.20
2016,02,24,01,53,4.30
2016,02,24,01,54,4.30
2016,02,24,01,55,4.30
2016,02,24,01,56,4.30
2016,02,24,01,57,4.30
2016,02,24,01,59,4.40
2016,02,24,02,00,4.40
2016,02,24,02,01,4.40
2016,02,24,02,02,4.40
2016,02,24,02,04,4.40
2016,02,24,02,05,4.40
2016,02,24,02,06,4.40
2016,02,24,02,07,4.40
2016,02,24,02,09,4.40
2016,02,24,02,10,4.40
2016,02,24,02,11,4.40
2016,02,24,02,12,4.30
2016,02,24,02,13,4.30
2016,02,24,02,14,4.30
2016,02,24,02,15,4.30
2016,02,24,02,16,4.30
2016,02,24,02,18,4.30
2016,02,24,02,19,4.30
2016,02,24,02,20,4.30
2016,02,24,02,21,4.30
2016,02,24,02,23,4.30
2016,02,24,02,24,4.30
2016,02,24,02,25,4.30
2016,02,24,02,26,4.30
2016,02,24,02,28,4.40
2016,02,24,02,29,4.40
2016,02,24,02,30,4.40
2016,02,24,02,31,4.40
2016,02,24,02,33,4.40
2016,02,24,02,34,4.40
2016,02,24,02,35,4.40
2016,02,24,02,36,4.40
2016,02,24,02,37,4.40
2016,02,24,02,38,4.40
2016,02,24,02,40,4.40
2016,02,24,02,41,4.40
2016,02,24,02,42,4.30
2016,02,24,02,43,4.30
2016,02,24,02,45,4.30
2016,02,24,02,46,4.30
2016,02,24,02,47,4.30
2016,02,24,02,48,4.20
2016,02,24,02,50,4.20
2016,02,24,02,51,4.30
2016,02,24,02,52,4.30
2016,02,24,02,53,4.30
2016,02,24,02,54,4.30
2016,02,24,02,55,4.30
2016,02,24,02,56,4.20
2016,02,24,02,57,4.20
2016,02,24,02,58,4.20
2016,02,24,02,59,4.20
2016,02,24,03,00,4.20
2016,02,24,03,02,4.20
2016,02,24,03,03,4.20
2016,02,24,03,04,4.20
2016,02,24,03,05,4.20
2016,02,24,03,07,4.20
2016,02,24,03,08,4.20
2016,02,24,03,09,4.20
2016,02,24,03,10,4.20
2016,02,24,03,12,4.20
2016,02,24,03,13,4.20
2016,02,24,03,14,4.20
2016,02,24,03,15,4.20
2016,02,24,03,17,4.20
2016,02,24,03,18,4.20
2016,02,24,03,19,4.20
2016,02,24,03,20,4.20
2016,02,24,03,22,4.20
2016,02,24,03,23,4.20
2016,02,24,03,24,4.20
2016,02,24,03,25,4.20
2016,02,24,03,26,4.20
2016,02,24,03,27,4.20
2016,02,24,03,29,4.30
2016,02,24,03,30,4.30
2016,02,24,03,31,4.30
2016,02,24,03,32,4.30
2016,02,24,03,33,4.20
2016,02,24,03,34,4.20
2016,02,24,03,36,4.20
2016,02,24,03,37,4.20
2016,02,24,03,38,4.20
2016,02,24,03,39,4.20
2016,02,24,03,41,4.20
2016,02,24,03,42,4.20
2016,02,24,03,43,4.20
2016,02,24,03,44,4.20
2016,02,24,03,45,4.30
2016,02,24,03,46,4.30
2016,02,24,03,48,4.30
2016,02,24,03,49,4.30
2016,02,24,03,50,4.30
2016,02,24,03,51,4.30
2016,02,24,03,52,4.30
2016,02,24,03,53,4.30
2016,02,24,03,54,4.30
2016,02,24,03,55,4.20
2016,02,24,03,56,4.20
2016,02,24,03,57,4.20
2016,02,24,03,58,4.20
2016,02,24,03,59,4.10
2016,02,24,04,00,4.10
2016,02,24,04,01,4.10
2016,02,24,04,02,4.10
2016,02,24,04,03,4.10
2016,02,24,04,04,4.10
2016,02,24,04,05,4.10
2016,02,24,04,06,4.10
2016,02,24,04,07,4.10
2016,02,24,04,08,4.20
2016,02,24,04,09,4.20
2016,02,24,04,10,4.20
2016,02,24,04,11,4.20
2016,02,24,04,12,4.20
2016,02,24,04,13,4.20
2016,02,24,04,14,4.20
2016,02,24,04,15,4.20
2016,02,24,04,16,4.20
2016,02,24,04,17,4.20
2016,02,24,04,18,4.20
2016,02,24,04,19,4.20
2016,02,24,04,20,4.20
2016,02,24,04,22,4.10
2016,02,24,04,23,4.10
2016,02,24,04,24,4.10
2016,02,24,04,25,4.10
2016,02,24,04,27,4.10
2016,02,24,04,28,4.10
2016,02,24,04,29,4.10
2016,02,24,04,30,4.10
2016,02,24,04,31,4.10
2016,02,24,04,32,4.10
2016,02,24,04,33,4.10
2016,02,24,04,34,4.10
2016,02,24,04,35,4.10
2016,02,24,04,36,4.10
2016,02,24,04,37,4.10
2016,02,24,04,38,4.10
2016,02,24,04,39,4.10
2016,02,24,04,40,4.10
2016,02,24,04,41,4.10
2016,02,24,04,42,4.10
2016,02,24,04,43,4.10
2016,02,24,04,44,4.20
2016,02,24,04,45,4.20
2016,02,24,04,46,4.20
2016,02,24,04,47,4.20
2016,02,24,04,48,4.20
2016,02,24,04,49,4.20
2016,02,24,04,50,4.20
2016,02,24,04,51,4.20
2016,02,24,04,52,4.20
2016,02,24,04,53,4.20
2016,02,24,04,54,4.20
2016,02,24,04,55,4.20
2016,02,24,04,56,4.30
2016,02,24,04,57,4.30
2016,02,24,04,58,4.30
2016,02,24,04,59,4.30
2016,02,24,05,00,4.40
2016,02,24,05,01,4.40
2016,02,24,05,02,4.40
2016,02,24,05,03,4.40
2016,02,24,05,04,4.40
2016,02,24,05,05,4.40
2016,02,24,05,06,4.40
2016,02,24,05,07,4.40
2016,02,24,05,08,4.40
2016,02,24,05,09,4.40
2016,02,24,05,10,4.40
2016,02,24,05,11,4.40
2016,02,24,05,12,4.30
2016,02,24,05,13,4.40
2016,02,24,05,14,4.40
2016,02,24,05,15,4.40
2016,02,24,05,16,4.40
2016,02,24,05,17,4.40
2016,02,24,05,18,4.40
2016,02,24,05,19,4.40
2016,02,24,05,20,4.40
2016,02,24,05,21,4.40
2016,02,24,05,22,4.40
2016,02,24,05,23,4.60
2016,02,24,05,24,4.60
2016,02,24,05,25,4.60
2016,02,24,05,26,4.60
2016,02,24,05,27,4.60
2016,02,24,05,28,4.60
2016,02,24,05,29,4.60
2016,02,24,05,30,4.60
2016,02,24,05,31,4.60
2016,02,24,05,32,4.60
2016,02,24,05,33,4.60
2016,02,24,05,34,4.60
2016,02,24,05,35,4.60
2016,02,24,05,36,4.60
2016,02,24,05,37,4.70
2016,02,24,05,38,4.70
2016,02,24,05,39,4.70
2016,02,24,05,40,4.70
2016,02,24,05,41,4.70
2016,02,24,05,42,4.70
2016,02,24,05,43,4.70
2016,02,24,05,44,4.80
2016,02,24,05,45,4.80
2016,02,24,05,46,4.80
2016,02,24,05,47,4.80
2016,02,24,05,48,4.80
2016,02,24,05,49,4.80
2016,02,24,05,50,4.80
2016,02,24,05,51,4.80
2016,02,24,05,52,4.80
2016,02,24,05,53,4.80
2016,02,24,05,54,4.80
2016,02,24,05,55,4.80
2016,02,24,05,56,4.80
2016,02,24,05,57,4.80
2016,02,24,05,58,4.80
2016,02,24,05,59,4.80
2016,02,24,06,00,4.80
2016,02,24,06,01,4.80
2016,02,24,06,02,4.80
2016,02,24,06,03,4.80
2016,02,24,06,04,4.80
2016,02,24,06,05,4.80
2016,02,24,06,06,4.80
2016,02,24,06,07,4.80
2016,02,24,06,08,4.80
2016,02,24,06,09,4.80
2016,02,24,06,10,4.80
2016,02,24,06,11,4.80
2016,02,24,06,12,4.80
2016,02,24,06,13,4.80
2016,02,24,06,14,4.80
2016,02,24,06,15,4.80
2016,02,24,06,16,4.80
2016,02,24,06,17,4.80
2016,02,24,06,18,4.80
2016,02,24,06,19,4.80
2016,02,24,06,20,4.80
2016,02,24,06,21,4.80
2016,02,24,06,22,4.80
2016,02,24,06,23,4.80
2016,02,24,06,24,4.80
2016,02,24,06,25,4.80
2016,02,24,06,26,4.80
2016,02,24,06,27,4.80
2016,02,24,06,28,4.80
2016,02,24,06,29,4.80
2016,02,24,06,30,4.80
2016,02,24,06,31,4.80
2016,02,24,06,32,4.80
2016,02,24,06,33,4.80
2016,02,24,06,34,4.80
2016,02,24,06,35,4.80
2016,02,24,06,36,4.80
2016,02,24,06,37,4.80
2016,02,24,06,38,4.80
2016,02,24,06,39,4.80
2016,02,24,06,40,4.80
2016,02,24,06,41,4.80
2016,02,24,06,43,4.80
2016,02,24,06,45,4.80
2016,02,24,06,47,4.80
2016,02,24,06,48,4.80
2016,02,24,06,49,4.80
2016,02,24,06,50,4.90
2016,02,24,06,51,4.90
2016,02,24,06,53,4.90
2016,02,24,06,54,5.00
2016,02,24,06,55,5.00
2016,02,24,06,57,5.00
2016,02,24,06,58,5.10
2016,02,24,06,59,5.10
2016,02,24,07,00,5.10
2016,02,24,07,02,5.10
2016,02,24,07,03,5.10
2016,02,24,07,04,5.10
2016,02,24,07,05,5.10
2016,02,24,07,07,5.10
2016,02,24,07,09,5.20
2016,02,24,07,10,5.20
2016,02,24,07,11,5.20
2016,02,24,07,12,5.20
2016,02,24,07,14,5.20
2016,02,24,07,15,5.20
2016,02,24,07,16,5.20
2016,02,24,07,17,5.20
2016,02,24,07,19,5.20
2016,02,24,07,21,5.20
2016,02,24,07,22,5.20
2016,02,24,07,23,5.20
2016,02,24,07,24,5.20
2016,02,24,07,26,5.20
2016,02,24,07,27,5.20
2016,02,24,07,28,5.20
2016,02,24,07,29,5.20
2016,02,24,07,31,5.20
2016,02,24,07,32,5.20
2016,02,24,07,33,5.20
2016,02,24,07,34,5.20
2016,02,24,07,35,5.20
2016,02,24,07,36,5.20
2016,02,24,07,38,5.20
2016,02,24,07,39,5.20
2016,02,24,07,40,5.20
2016,02,24,07,41,5.20
2016,02,24,07,42,5.20
2016,02,24,07,43,5.20
2016,02,24,07,45,5.30
2016,02,24,07,46,5.30
2016,02,24,07,47,5.30
2016,02,24,07,48,5.30
2016,02,24,07,50,5.40
2016,02,24,07,51,5.40
2016,02,24,07,52,5.40
2016,02,24,07,53,5.50
2016,02,24,07,55,5.50
2016,02,24,07,56,5.50
2016,02,24,07,57,5.60
2016,02,24,07,58,5.60
2016,02,24,08,00,5.60
2016,02,24,08,01,5.60
2016,02,24,08,02,5.60
2016,02,24,08,03,5.60
2016,02,24,08,04,5.70
2016,02,24,08,05,5.70
2016,02,24,08,07,5.70
2016,02,24,08,08,5.70
2016,02,24,08,09,5.80
2016,02,24,08,10,5.80
2016,02,24,08,12,5.90
2016,02,24,08,13,5.90
2016,02,24,08,14,5.90
2016,02,24,08,15,5.90
2016,02,24,08,17,5.90
2016,02,24,08,18,6.10
2016,02,24,08,19,6.10
2016,02,24,08,20,6.10
2016,02,24,08,21,6.10
2016,02,24,08,22,6.10
2016,02,24,08,23,6.10
2016,02,24,08,24,6.10
2016,02,24,08,25,6.20
2016,02,24,08,26,6.20
2016,02,24,08,27,6.20
2016,02,24,08,28,6.20
2016,02,24,08,29,6.30
2016,02,24,08,30,6.30
2016,02,24,08,31,6.30
2016,02,24,08,32,6.30
2016,02,24,08,33,6.30
2016,02,24,08,34,6.30
2016,02,24,08,35,6.30
2016,02,24,08,36,6.40
2016,02,24,08,37,6.40
2016,02,24,08,38,6.40
2016,02,24,08,39,6.50
2016,02,24,08,41,6.50
2016,02,24,08,42,6.50
2016,02,24,08,43,6.60
2016,02,24,08,44,6.60
2016,02,24,08,46,6.60
2016,02,24,08,47,6.60
2016,02,24,08,48,6.70
2016,02,24,08,49,6.70
2016,02,24,08,51,6.70
2016,02,24,08,52,6.70
2016,02,24,08,53,6.70
2016,02,24,08,54,6.70
2016,02,24,08,55,6.70
2016,02,24,08,56,6.70
2016,02,24,08,58,6.70
2016,02,24,08,59,6.70
2016,02,24,09,00,6.70
2016,02,24,09,01,6.70
2016,02,24,09,03,6.70
2016,02,24,09,04,6.70
2016,02,24,09,05,6.70
2016,02,24,09,06,6.70
2016,02,24,09,07,6.70
2016,02,24,09,08,6.70
2016,02,24,09,10,6.70
2016,02,24,09,11,6.70
2016,02,24,09,12,6.70
2016,02,24,09,13,6.70
2016,02,24,09,15,6.80
2016,02,24,09,16,6.80
2016,02,24,09,17,6.80
2016,02,24,09,18,6.80
2016,02,24,09,20,6.80
2016,02,24,09,21,6.90
2016,02,24,09,22,6.90
2016,02,24,09,23,7.00
2016,02,24,09,24,7.00
2016,02,24,09,25,7.10
2016,02,24,09,26,7.10
2016,02,24,09,27,7.10
2016,02,24,09,28,7.20
2016,02,24,09,29,7.20
2016,02,24,09,30,7.20
2016,02,24,09,31,7.20
2016,02,24,09,32,7.20
2016,02,24,09,33,7.20
2016,02,24,09,34,7.20
2016,02,24,09,35,7.20
2016,02,24,09,36,7.30
2016,02,24,09,37,7.30
2016,02,24,09,38,7.40
2016,02,24,09,39,7.40
2016,02,24,09,40,7.40
2016,02,24,09,41,7.40
2016,02,24,09,42,7.50
2016,02,24,09,43,7.40
2016,02,24,09,44,7.40
2016,02,24,09,45,7.40
2016,02,24,09,46,7.50
2016,02,24,09,47,7.50
2016,02,24,09,48,7.50
2016,02,24,09,49,7.50
2016,02,24,09,50,7.60
2016,02,24,09,51,7.60
2016,02,24,09,53,7.70
2016,02,24,09,54,7.70
2016,02,24,09,55,7.70
2016,02,24,09,56,7.70
2016,02,24,09,57,7.70
2016,02,24,09,58,7.80
2016,02,24,09,59,7.90
2016,02,24,10,00,7.90
2016,02,24,10,01,7.90
2016,02,24,10,02,8.10
2016,02,24,10,03,8.10
2016,02,24,10,04,8.10
2016,02,24,10,05,8.20
2016,02,24,10,06,8.20
2016,02,24,10,07,8.30
2016,02,24,10,08,8.30
2016,02,24,10,09,8.40
2016,02,24,10,10,8.40
2016,02,24,10,11,8.60
2016,02,24,10,12,8.60
2016,02,24,10,13,8.70
2016,02,24,10,14,8.90
2016,02,24,10,15,8.90
2016,02,24,10,16,9.10
2016,02,24,10,17,9.10
2016,02,24,10,18,9.10
2016,02,24,10,19,9.10
2016,02,24,10,20,9.10
2016,02,24,10,21,9.10
2016,02,24,10,22,9.10
2016,02,24,10,23,9.10
2016,02,24,10,24,9.10
2016,02,24,10,25,9.10
2016,02,24,10,26,9.10
2016,02,24,10,27,8.90
2016,02,24,10,28,8.90
2016,02,24,10,29,8.80
2016,02,24,10,30,8.70
2016,02,24,10,31,8.60
2016,02,24,10,32,8.60
2016,02,24,10,33,8.60
2016,02,24,10,34,8.60
2016,02,24,10,35,8.60
2016,02,24,10,36,8.60
2016,02,24,10,37,8.60
2016,02,24,10,38,8.60
2016,02,24,10,39,8.70
2016,02,24,10,40,8.80
2016,02,24,10,41,8.90
2016,02,24,10,42,8.90
2016,02,24,10,43,8.90
2016,02,24,10,44,8.90
2016,02,24,10,45,8.90
2016,02,24,10,46,8.90
2016,02,24,10,47,8.90
2016,02,24,10,48,8.80
2016,02,24,10,49,8.80
2016,02,24,10,50,8.80
2016,02,24,10,51,8.80
2016,02,24,10,52,8.80
2016,02,24,10,53,8.90
2016,02,24,10,54,8.90
2016,02,24,10,55,8.90
2016,02,24,10,56,8.90
2016,02,24,10,57,9.10
2016,02,24,10,58,9.10
2016,02,24,10,59,9.10
2016,02,24,11,00,9.10
2016,02,24,11,01,9.10
2016,02,24,11,02,9.10
2016,02,24,11,03,9.10
2016,02,24,11,04,9.10
2016,02,24,11,05,9.10
2016,02,24,11,06,9.30
2016,02,24,11,07,9.40
2016,02,24,11,08,9.40
2016,02,24,11,09,9.40
2016,02,24,11,10,9.60
2016,02,24,11,11,9.60
2016,02,24,11,12,9.60
2016,02,24,11,13,9.70
2016,02,24,11,14,9.70
2016,02,24,11,15,9.80
2016,02,24,11,16,9.80
2016,02,24,11,17,9.80
2016,02,24,11,18,9.80
2016,02,24,11,19,9.80
2016,02,24,11,20,9.90
2016,02,24,11,21,10.00
2016,02,24,11,22,10.10
2016,02,24,11,23,10.10
2016,02,24,11,24,10.10
2016,02,24,11,25,10.20
2016,02,24,11,26,10.30
2016,02,24,11,27,10.30
2016,02,24,11,28,10.30
2016,02,24,11,29,10.40
2016,02,24,11,30,10.50
2016,02,24,11,31,10.60
2016,02,24,11,32,10.70
2016,02,24,11,33,10.80
2016,02,24,11,34,10.80
2016,02,24,11,35,10.90
2016,02,24,11,36,10.90
2016,02,24,11,37,11.00
2016,02,24,11,38,11.10
2016,02,24,11,39,11.10
2016,02,24,11,40,11.10
2016,02,24,11,41,11.20
2016,02,24,11,42,11.20
2016,02,24,11,43,11.20
2016,02,24,11,44,11.20
2016,02,24,11,45,11.10
2016,02,24,11,46,11.10
2016,02,24,11,47,11.00
2016,02,24,11,48,11.00
2016,02,24,11,49,10.80
2016,02,24,11,50,10.80
2016,02,24,11,51,10.80
2016,02,24,11,52,10.80
2016,02,24,11,53,10.80
2016,02,24,11,54,10.70
2016,02,24,11,55,10.70
2016,02,24,11,56,10.70
2016,02,24,11,57,10.70
2016,02,24,11,58,10.70
2016,02,24,12,00,10.70
2016,02,24,12,02,10.70
2016,02,24,12,03,10.70
2016,02,24,12,04,10.70
2016,02,24,12,05,10.70
2016,02,24,12,07,10.70
2016,02,24,12,08,10.70
2016,02,24,12,09,10.70
2016,02,24,12,10,10.70
2016,02,24,12,12,10.70
2016,02,24,12,13,10.70
2016,02,24,12,14,10.70
2016,02,24,12,15,10.80
2016,02,24,12,16,10.80
2016,02,24,12,17,10.80
2016,02,24,12,19,10.80
2016,02,24,12,20,10.70
2016,02,24,12,21,10.60
2016,02,24,12,22,10.60
2016,02,24,12,23,10.60
2016,02,24,12,24,10.60
2016,02,24,12,26,10.60
2016,02,24,12,27,10.60
2016,02,24,12,28,10.70
2016,02,24,12,29,10.70
2016,02,24,12,31,10.70
2016,02,24,12,32,10.70
2016,02,24,12,33,10.60
2016,02,24,12,34,10.60
2016,02,24,12,35,10.60
2016,02,24,12,36,10.50
2016,02,24,12,38,10.50
2016,02,24,12,39,10.50
2016,02,24,12,40,10.40
2016,02,24,12,41,10.40
2016,02,24,12,43,10.40
2016,02,24,12,44,10.50
2016,02,24,12,45,10.50
2016,02,24,12,46,10.50
2016,02,24,12,48,10.60
2016,02,24,12,49,10.60
2016,02,24,12,50,10.70
2016,02,24,12,51,10.70
2016,02,24,12,53,10.70
2016,02,24,12,54,10.80
2016,02,24,12,55,10.80
2016,02,24,12,56,10.80
2016,02,24,12,57,10.80
2016,02,24,12,58,10.80
2016,02,24,13,00,10.90
2016,02,24,13,01,11.00
2016,02,24,13,02,11.00
2016,02,24,13,03,11.10
2016,02,24,13,05,11.20
2016,02,24,13,07,11.30
2016,02,24,13,08,11.30
2016,02,24,13,09,11.30
2016,02,24,13,10,11.30
2016,02,24,13,12,11.50
2016,02,24,13,13,11.50
2016,02,24,13,14,11.60
2016,02,24,13,15,11.60
2016,02,24,13,17,11.70
2016,02,24,13,18,11.80
2016,02,24,13,19,11.80
2016,02,24,13,20,11.80
2016,02,24,13,22,11.80
2016,02,24,13,23,11.80
2016,02,24,13,24,11.80
2016,02,24,13,25,11.80
2016,02,24,13,27,11.80
2016,02,24,13,28,11.90
2016,02,24,13,29,11.90
2016,02,24,13,30,11.80
2016,02,24,13,31,11.80
2016,02,24,13,32,11.80
2016,02,24,13,34,11.80
2016,02,24,13,35,11.80
2016,02,24,13,36,11.60
2016,02,24,13,37,11.50
2016,02,24,13,38,11.50
2016,02,24,13,39,11.40
2016,02,24,13,40,11.30
2016,02,24,13,41,11.30
2016,02,24,13,43,11.40
2016,02,24,13,44,11.40
2016,02,24,13,45,11.50
2016,02,24,13,46,11.50
2016,02,24,13,48,11.70
2016,02,24,13,49,11.80
2016,02,24,13,50,11.80
2016,02,24,13,51,11.90
2016,02,24,13,53,12.00
2016,02,24,13,54,12.10
2016,02,24,13,55,12.20
2016,02,24,13,56,12.30
2016,02,24,13,58,12.50
2016,02,24,13,59,12.60
2016,02,24,14,00,12.70
2016,02,24,14,01,12.70
2016,02,24,14,02,12.80
2016,02,24,14,03,12.80
2016,02,24,14,04,12.80
2016,02,24,14,05,12.90
2016,02,24,14,06,12.90
2016,02,24,14,07,12.90
2016,02,24,14,08,12.90
2016,02,24,14,09,12.80
2016,02,24,14,10,12.80
2016,02,24,14,11,12.80
2016,02,24,14,12,12.70
2016,02,24,14,13,12.70
2016,02,24,14,14,12.70
2016,02,24,14,15,12.70
2016,02,24,14,16,12.70
2016,02,24,14,17,12.70
2016,02,24,14,18,12.70
2016,02,24,14,19,12.60
2016,02,24,14,20,12.50
2016,02,24,14,21,12.50
2016,02,24,14,22,12.40
2016,02,24,14,23,12.30
2016,02,24,14,24,12.30
2016,02,24,14,25,12.20
2016,02,24,14,27,12.10
2016,02,24,14,28,12.10
2016,02,24,14,29,12.10
2016,02,24,14,30,12.00
2016,02,24,14,32,12.00
2016,02,24,14,33,12.00
2016,02,24,14,34,11.90
2016,02,24,14,35,11.90
2016,02,24,14,36,11.90
2016,02,24,14,37,11.90
2016,02,24,14,38,11.90
2016,02,24,14,39,11.90
2016,02,24,14,40,11.90
2016,02,24,14,41,11.90
2016,02,24,14,42,11.90
2016,02,24,14,43,11.90
2016,02,24,14,44,12.00
2016,02,24,14,45,12.00
2016,02,24,14,46,12.10
2016,02,24,14,47,12.20
2016,02,24,14,48,12.20
2016,02,24,14,49,12.20
2016,02,24,14,50,12.30
2016,02,24,14,51,12.30
2016,02,24,14,52,12.20
2016,02,24,14,53,12.20
2016,02,24,14,54,12.10
2016,02,24,14,55,12.00
2016,02,24,14,56,11.90
2016,02,24,14,57,11.80
2016,02,24,14,58,11.70
2016,02,24,14,59,11.70
2016,02,24,15,00,11.60
2016,02,24,15,01,11.60
2016,02,24,15,02,11.60
2016,02,24,15,03,11.50
2016,02,24,15,04,11.50
2016,02,24,15,05,11.50
2016,02,24,15,06,11.50
2016,02,24,15,07,11.50
2016,02,24,15,08,11.50
2016,02,24,15,09,11.50
2016,02,24,15,10,11.50
2016,02,24,15,11,11.50
2016,02,24,15,12,11.50
2016,02,24,15,13,11.50
2016,02,24,15,14,11.60
2016,02,24,15,15,11.60
2016,02,24,15,16,11.60
2016,02,24,15,17,11.60
2016,02,24,15,18,11.60
2016,02,24,15,19,11.60
2016,02,24,15,20,11.60
2016,02,24,15,21,11.60
2016,02,24,15,22,11.60
2016,02,24,15,23,11.60
2016,02,24,15,24,11.60
2016,02,24,15,25,11.60
2016,02,24,15,26,11.50
2016,02,24,15,27,11.50
2016,02,24,15,28,11.50
2016,02,24,15,29,11.50
2016,02,24,15,30,11.50
2016,02,24,15,31,11.40
2016,02,24,15,32,11.40
2016,02,24,15,33,11.40
2016,02,24,15,34,11.30
2016,02,24,15,35,11.30
2016,02,24,15,36,11.30
2016,02,24,15,37,11.30
2016,02,24,15,38,11.30
2016,02,24,15,39,11.20
2016,02,24,15,40,11.20
2016,02,24,15,41,11.10
2016,02,24,15,42,11.10
2016,02,24,15,43,11.10
2016,02,24,15,44,11.10
2016,02,24,15,45,11.10
2016,02,24,15,46,11.10
2016,02,24,15,47,11.10
2016,02,24,15,48,11.10
2016,02,24,15,49,11.10
2016,02,24,15,50,11.10
2016,02,24,15,51,11.20
2016,02,24,15,52,11.20
2016,02,24,15,53,11.20
2016,02,24,15,54,11.20
2016,02,24,15,55,11.20
2016,02,24,15,56,11.30
2016,02,24,15,57,11.30
2016,02,24,15,58,11.30
2016,02,24,15,59,11.30
2016,02,24,16,00,11.30
2016,02,24,16,01,11.30
2016,02,24,16,02,11.40
2016,02,24,16,03,11.40
2016,02,24,16,04,11.40
2016,02,24,16,05,11.40
2016,02,24,16,06,11.50
2016,02,24,16,07,11.50
2016,02,24,16,08,11.40
2016,02,24,16,09,11.40
2016,02,24,16,10,11.40
2016,02,24,16,11,11.40
2016,02,24,16,12,11.30
2016,02,24,16,13,11.30
2016,02,24,16,14,11.30
2016,02,24,16,15,11.30
2016,02,24,16,16,11.30
2016,02,24,16,17,11.30
2016,02,24,16,18,11.20
2016,02,24,16,19,11.20
2016,02,24,16,20,11.00
2016,02,24,16,21,10.90
2016,02,24,16,22,10.80
2016,02,24,16,23,10.80
2016,02,24,16,24,10.80
2016,02,24,16,25,10.70
2016,02,24,16,26,10.60
2016,02,24,16,27,10.50
2016,02,24,16,28,10.50
2016,02,24,16,29,10.40
2016,02,24,16,30,10.40
2016,02,24,16,31,10.30
2016,02,24,16,32,10.30
2016,02,24,16,33,10.30
2016,02,24,16,34,10.30
2016,02,24,16,35,10.30
2016,02,24,16,36,10.30
2016,02,24,16,37,10.30
2016,02,24,16,38,10.30
2016,02,24,16,39,10.40
2016,02,24,16,40,10.40
2016,02,24,16,41,10.40
2016,02,24,16,42,10.40
2016,02,24,16,43,10.40
2016,02,24,16,44,10.50
2016,02,24,16,45,10.50
2016,02,24,16,46,10.50
2016,02,24,16,47,10.50
2016,02,24,16,48,10.50
2016,02,24,16,49,10.50
2016,02,24,16,50,10.50
2016,02,24,16,51,10.50
2016,02,24,16,52,10.40
2016,02,24,16,53,10.40
2016,02,24,16,54,10.40
2016,02,24,16,56,10.40
2016,02,24,16,57,10.30
2016,02,24,16,58,10.30
2016,02,24,16,59,10.30
2016,02,24,17,00,10.30
2016,02,24,17,02,10.20
2016,02,24,17,03,10.10
2016,02,24,17,04,10.00
2016,02,24,17,05,10.00
2016,02,24,17,07,9.80
2016,02,24,17,08,9.80
2016,02,24,17,09,9.80
2016,02,24,17,10,9.80
2016,02,24,17,12,9.70
2016,02,24,17,14,9.60
2016,02,24,17,15,9.60
2016,02,24,17,16,9.60
2016,02,24,17,17,9.60
2016,02,24,17,19,9.40
2016,02,24,17,21,9.40
2016,02,24,17,22,9.40
2016,02,24,17,24,9.40
2016,02,24,17,26,9.30
2016,02,24,17,27,9.30
2016,02,24,17,28,9.30
2016,02,24,17,29,9.30
2016,02,24,17,31,9.30
2016,02,24,17,32,9.30
2016,02,24,17,33,9.40
2016,02,24,17,34,9.40
2016,02,24,17,36,9.40
2016,02,24,17,38,9.40
2016,02,24,17,39,9.40
2016,02,24,17,41,9.40
2016,02,24,17,43,9.40
2016,02,24,17,44,9.40
2016,02,24,17,45,9.40
2016,02,24,17,46,9.40
2016,02,24,17,48,9.40
2016,02,24,17,50,9.40
2016,02,24,17,51,9.40
2016,02,24,17,52,9.30
2016,02,24,17,53,9.30
2016,02,24,17,55,9.30
2016,02,24,17,56,9.30
2016,02,24,17,57,9.30
2016,02,24,17,58,9.30
2016,02,24,18,00,9.30
2016,02,24,18,01,9.20
2016,02,24,18,02,9.20
2016,02,24,18,03,9.20
2016,02,24,18,05,9.10
2016,02,24,18,06,9.10
2016,02,24,18,07,9.10
2016,02,24,18,08,9.10
2016,02,24,18,10,9.10
2016,02,24,18,11,8.90
2016,02,24,18,12,8.90
2016,02,24,18,13,8.90
2016,02,24,18,14,8.90
2016,02,24,18,15,8.90
2016,02,24,18,17,8.80
2016,02,24,18,18,8.70
2016,02,24,18,19,8.70
2016,02,24,18,20,8.60
2016,02,24,18,21,8.60
2016,02,24,18,22,8.60
2016,02,24,18,24,8.60
2016,02,24,18,25,8.40
2016,02,24,18,26,8.40
2016,02,24,18,27,8.40
2016,02,24,18,29,8.30
2016,02,24,18,30,8.30
2016,02,24,18,31,8.30
2016,02,24,18,32,8.20
2016,02,24,18,33,8.20
2016,02,24,18,34,8.10
2016,02,24,18,36,8.10
2016,02,24,18,37,8.10
2016,02,24,18,38,8.10
2016,02,24,18,39,8.10
2016,02,24,18,41,7.90
2016,02,24,18,42,7.90
2016,02,24,18,43,7.90
2016,02,24,18,44,7.90
2016,02,24,18,45,7.90
2016,02,24,18,46,7.80
2016,02,24,18,48,7.70
2016,02,24,18,49,7.70
2016,02,24,18,50,7.70
2016,02,24,18,51,7.60
2016,02,24,18,53,7.40
2016,02,24,18,54,7.30
2016,02,24,18,55,7.30
2016,02,24,18,56,7.20
2016,02,24,18,57,7.20
2016,02,24,18,58,7.20
2016,02,24,18,59,7.10
2016,02,24,19,00,7.00
2016,02,24,19,01,7.00
2016,02,24,19,02,6.90
2016,02,24,19,03,6.80
2016,02,24,19,04,6.80
2016,02,24,19,05,6.80
2016,02,24,19,06,6.70
2016,02,24,19,07,6.70
2016,02,24,19,08,6.60
2016,02,24,19,10,6.60
2016,02,24,19,11,6.50
2016,02,24,19,12,6.50
2016,02,24,19,13,6.40
2016,02,24,19,15,6.30
2016,02,24,19,16,6.30
2016,02,24,19,17,6.30
2016,02,24,19,18,6.20
2016,02,24,19,20,6.10
2016,02,24,19,21,6.10
2016,02,24,19,22,6.10
2016,02,24,19,23,6.10
2016,02,24,19,25,5.90
2016,02,24,19,26,5.90
2016,02,24,19,27,5.90
2016,02,24,19,28,5.90
2016,02,24,19,29,5.90
2016,02,24,19,30,5.90
2016,02,24,19,32,5.90
2016,02,24,19,33,5.80
2016,02,24,19,34,5.80
2016,02,24,19,35,5.70
2016,02,24,19,36,5.70
2016,02,24,19,37,5.70
2016,02,24,19,39,5.70
2016,02,24,19,40,5.70
2016,02,24,19,41,5.60
2016,02,24,19,42,5.60
2016,02,24,19,43,5.60
2016,02,24,19,44,5.60
2016,02,24,19,45,5.60
2016,02,24,19,46,5.60
2016,02,24,19,47,5.50
2016,02,24,19,48,5.50
2016,02,24,19,49,5.40
2016,02,24,19,50,5.40
2016,02,24,19,51,5.30
2016,02,24,19,53,5.30
2016,02,24,19,54,5.30
2016,02,24,19,55,5.30
2016,02,24,19,56,5.30